Regional Weather Roundup
Issued by NWS Wakefield, VA

Home | Current Version | Previous Version | Text Only | Print | Product List | Glossary On
Versions: 1 2 3 4 5 6 7 8 9 10 11 12 13 14 15 16 17 18 19 20 21 22 23 24 25 26 27 28
000
ASUS41 KAKQ 210815
RWRAKQ

REGIONAL WEATHER ROUNDUP
NATIONAL WEATHER SERVICE WAKEFIELD VA
400 AM EDT SAT APR 21 2018

Note: "fair" indicates few or no clouds below 12,000 feet with no
significant weather and/or obstructions to visibility. * = Denotes
station may not report precipitation (e.g., rain,snow,etc.),
thunder or fog.

VAZ042-051-052>054-056-210900-
NORTHERN VIRGINIA

CITY           SKY/WX    TMP DP  RH WIND       PRES   REMARKS
WASH NATIONAL  FAIR      44  27  51 NE6       30.46R
DULLES         FAIR      39  29  67 E7        30.45R
FORT BELVOIR   FAIR      42  27  54 CALM      30.45R
QUANTICO       FAIR      47  33  58 E13       30.46R
FREDERICKSBRG* FAIR      44  32  62 NE5       30.44R
STAFFORD*      FAIR      43  31  62 NE3       30.48R
WARRENTON      FAIR      41  25  53 NE6       30.44R
CULPEPER*      FAIR      38  26  60 N5        30.45R
MANASSAS*      FAIR      36  30  79 NE3       30.45R
LEESBURG*      FAIR      41  32  70 CALM      30.46R
WINCHESTER     FAIR      34  25  69 CALM      30.45R
FRONT ROYAL*   FAIR      37  25  60 CALM      30.43R
LURAY*         FAIR      34  32  93 CALM      30.43R
$$

VAZ048-049-060>072-079>083-210900-
CENTRAL AND SOUTH CENTRAL VIRGINIA

CITY           SKY/WX    TMP DP  RH WIND       PRES   REMARKS
RICHMOND       FAIR      40  32  73 N7        30.41R
CHESTERFIELD*  FAIR      34  28  79 CALM      30.41R
PETERSBURG*    FAIR      31  29  92 CALM      30.42R
HANOVER        FAIR      37  29  72 CALM      30.43R
TAPPAHANNOCK*  FAIR      44  32  62 N5        30.44R
QUINTON*       FAIR      35  33  90 CALM      30.41R
CHARLOTTSVILLE FAIR      44  23  43 CALM      30.42R
GORDONSVILLE*  FAIR      37  29  72 NE3       30.42R
ORANGE*        FAIR      43  25  49 CALM      30.43R
LOUISA*        FAIR      37  24  58 NE6       30.46R
BUMPASS*       FAIR      46  23  40 N3        30.43R
FARMVILLE*     FAIR      35  35 100 CALM      30.41R
CREWE*         FAIR      35  35 100 CALM      30.41R
FORT PICKETT*  FAIR      38  28  68 CALM      30.41R
CHASE CITY*    FAIR      46  26  46 CALM      30.40R
CLARKSVILLE*   FAIR      43  30  61 NE3       30.39S
SOUTH HILL*    FAIR      34  32  92 CALM      30.46R
LAWRENCEVILLE* FAIR      37  33  85 CALM      30.40S
EMPORIA*       FAIR      34  34 100 CALM      30.42S
$$

VAZ088>098-210900-
SOUTHEAST VIRGINIA

CITY           SKY/WX    TMP DP  RH WIND       PRES   REMARKS
NORFOLK        FAIR      44  37  76 SW3       30.39R
VIRGINIA BEACH FAIR      41  37  86 CALM      30.39R
NORFOLK NAVAL  FAIR      44  37  76 W5        30.41R
WEST POINT*    FAIR      37  35  92 CALM      30.43R
SALUDA*        FAIR      45  38  78 NE3       30.42R
NEWPORT NEWS   FAIR      38  36  92 NW3       30.40R
LANGLEY AFB    FAIR      42  38  86 CALM      30.40R
FORT EUSTIS    FAIR      45  38  76 CALM      30.38R
WILLIAMSBURG*  FAIR      41  37  87 CALM      30.42R
HR EXEC AP*    FAIR      30  29  96 CALM      30.41R
FRANKLIN*      FAIR      35  33  94 CALM      30.41R
US460-WAKEFLD  FAIR      34  32  92 CALM      30.41R
$$

VAZ020-022-025-037-045-210900-
WEST CENTRAL AND SOUTHWEST VIRGINIA

CITY           SKY/WX    TMP DP  RH WIND       PRES   REMARKS
STAUNTON*      FAIR      30  26  83 CALM      30.44R
WAYNESBORO*    FAIR      33  24  69 SW3       30.41S
HOT SPRINGS VA FAIR      38  13  36 N3        30.37R
LYNCHBURG      FAIR      42  24  49 CALM      30.41R
DANVILLE       FAIR      42  28  57 NE7       30.40R
SOUTH BOSTON*  FAIR      34  33  95 CALM      30.40R
MARTINSVILLE   FAIR      40  24  54 N5        30.42R
ROANOKE        FAIR      41  23  48 CALM      30.42R
BLACKSBURG     FAIR      34  22  62 CALM      30.42R
DUBLIN*        FAIR      36  23  59 CALM      30.40S
MARION*        FAIR      33  25  72 CALM      30.41R
HILLSVILLE*    FAIR      41  16  36 NE3       30.36S
RICHLANDS*     FAIR      41   2  20 E8        30.36S
WISE*          FAIR      41  19  42 CALM      30.35F
ABINGDON*      FAIR      43  22  42 E8        30.35S
$$

MDZ021>025-VAZ099-100-210900-
SOUTHERN MARYLAND AND THE DELMARVA PENINSULA

CITY           SKY/WX    TMP DP  RH WIND       PRES   REMARKS
PATUXENT RIVER FAIR      45  29  53 NE14      30.44R
BAY BRIDGE APT FAIR      39  27  60 CALM      30.45R
LEONARDTOWN    FAIR      43  30  61 CALM      30.45R
DOVER          FAIR      38  27  65 CALM      30.43R
GEORGETOWN     FAIR      40  27  59 N5        30.43S
EASTON         FAIR      37  29  73 CALM      30.48R
CAMBRIDGE      CLEAR     39  27  60 N5        30.44R
SALISBURY      FAIR      38  30  73 N3        30.42S
TANGIER        FAIR      46  36  66 NE16G24   30.42R
OCEAN CITY     FAIR      42  27  55 N10       30.42R
WALLOPS ISLAND FAIR      41  32  70 N6        30.43R
ACCOMACK*      FAIR      41  36  81 NE7       30.41R
$$

NCZ012>017-030>032-210900-
NORTH CENTRAL AND EASTERN NORTH CAROLINA

CITY           SKY/WX    TMP DP  RH WIND       PRES   REMARKS
ROANOKE RAPIDS FAIR      34  34 100 CALM      30.40R
RALEIGH        FAIR      39  34  82 NE6       30.38R
ELIZABETH CITY FAIR      40  39  97 W3        30.39R
AHOSKIE*       FAIR      35  35  99 CALM      30.40S
EDENTON*       FAIR      40  38  91 CALM      30.40S
CURRITUCK*     NOT AVBL
KILL DEVIL HLS FAIR      44  36  73 CALM      30.37R
MANTEO         FAIR      37  35  90 CALM      30.39R
CAPE HATTERAS  FAIR      47  36  65 NE6       30.37R
TARBORO*       NOT AVBL
GOLDSBORO      FAIR      38  35  86 CALM      30.35S
WASHINGTON     FAIR      40  38  92 CALM      30.39S
GREENVILLE     FAIR      41  39  93 CALM      30.40R
NEW BERN       FAIR      39  39 100 CALM      30.39R
WILMINGTON     FAIR      41  39  93 NE3       30.35R
$$

VAZ048-210900-
ELSEWHERE

CITY           SKY/WX    TMP DP  RH WIND       PRES   REMARKS
HARRISBURG PA  FAIR      34  26  72 NW3       30.44R
BALTIMORE      FAIR      36  27  69 CALM      30.45R
ANNAPOLIS      FAIR      46  28  49 CALM      30.44S
ANDREWS AFB    FAIR      39  27  63 NE6       30.44R
PHILADELPHIA   FAIR      38  25  59 W5        30.44R
GREENSBORO     FAIR      43  29  57 CALM      30.36R
ROCKY MOUNT    FAIR      37  35  92 NE5       30.39R
$$

VAZ100-210900-
MARINE

STATION/POSITION TIME  TEMP    WIND        PRES    WAVE   SWELL
                       AIR SEA DIR/SP/G            HT/PER HT/PER
                 (UTC) (F)     (DEG/KT/KT) (MB)    (FT/S) (FT/S)
BRANDYWINE LGT   0742   44      20/ 15/ 18 1030.6R
CAPE MAY NJ      0748   42 49   30/  4/  6 1029.8R
LEWES DE         0748   45 49   20/ 17/ 19 1030.2R
15NM E FENWICK I 0750   43 46  350/ 16/ 19 1029.9R   3/ 4
OCEAN-CITY-INLET 0748   44 49   20/ 13/ 20 1030.5R
WACHAPREAGUE VA  0748   43 52  360/  5/  8 1029.6R
THOMAS POINT MD  0800   45 50   40/  6/  7 1032.0R
GOOSES REEF MD   0800   46      80/ 10/ 12 1031.3
COVE POINT MD    0748   45      50/ 13/ 15 1031.5R
SOLOMONS ISLAND  0748   45 52   30/  9/ 12 1030.5R
BISHOPS HEAD MD  0748   45 52   30/ 12/ 17 1030.8R
PINEY POINT MD   0748           80/  7/  9   N/A
POTOMAC MD       0800   47 51   60/ 14/ 19 1031.7    2/ 3
CAMBRIDGE MD     0748   44 53              1031.6R
LEWISETTA VA     0748   47 54   60/ 13/ 18 1030.3R
RAPPAHANNOCK LGT 0748           30/ 13/ 15 1030.0R
YORK RVR RNG VA  0748   49     310/ 10/ 11 1030.0R
YORKTOWN VA      0748   46 56  320/  6/  8 1029.2R
DOMINION TERM VA 0748   48     250/  8/ 10 1029.4R
KIPTOPEKE VA     0748      53  310/  6/  7   N/A
CAPE HENRY VA    0748   45     230/  7/  9   N/A
WILLOUBY STN VA  0748   49     260/ 10/ 12 1029.1R
S CRANEY ISL VA  0748   45     260/  8/  9 1028.8R
CAPE HENRY BUOY  0800      50                N/A     1/ 9
64NM E OF VA BCH 0750   48 48  270/  4/  6 1029.2R   3/ 7   2/ 7
DUCK PIER NC     0748   51 52  230/  4/  5 1028.2R
44100 DUCK FRF   0745      50                N/A     2/ 6   2/13
44056 DUCK FRF   0800      51                N/A     2/ 8
OREGON INLET NC  0742   46 56  240/  1/  1 1028.5R
HATTERAS NC      0748   51 60   60/  5/  6 1028.2R
DIAMOND SHLS NC  0800   56      20/ 12/ 16   N/A
CAPE LOOKOUT NC  0800           50/ 13/ 15 1028.5R
$$




USA.gov is the U.S. government's official web portal to all federal, state and local government web resources and services.